User: anonymous   Login
Location: Hebron
(33.0265°N, 96.8636°W)
Time: 00:35:16
(UTC+00:00)
Language:

Cosmos 1812 - Orbit

View from above orbital plane
View from above orbital plane
View from above satellite
View from above satellite

Ground track
Ground track

The orbit data is extracted from the following two-line orbital elements,

1 17295U 87003A   22147.52523511  .00004639  00000-0  22952-3 0  9997
2 17295  82.5121 166.1880 0003204  30.7632 329.3789 15.17577355932129
Epoch (UTC): 27 May 2022 12:36:20
Eccentricity: 0.0003204
inclination: 82.5121°
perigee height: 511 km
apogee height: 515 km
right ascension of ascending node: 166.1880°
argument of perigee: 30.7632°
revolutions per day: 15.17577355
mean anomaly at epoch: 329.3789°
orbit number at epoch: 93212

The dashed part of the orbit path shows where the satellite is in the earth's shadow,  

DLR